Location: ????????
(37.6846°N, 24.0673°E)
Time: 14:42:40
(UTC+00:00)

Cosmos 2278 - Pass Details

Date: 14 July 2020
Orbit: 838 x 854 km, 71.1° (Epoch: 04 August)

Event Time Altitude Azimuth Distance (km) Brightness Sun altitude
Rises 02:03:52 0° 327° (NNW) 3,429 7.0 -12.2°
Reaches altitude 10° 02:06:33 10° 318° (NW) 2,489 6.1 -11.8°
Maximum altitude 02:11:34 33° 257° (WSW) 1,410 4.4 -11.1°
Drops below altitude 10° 02:16:33 10° 195° (SSW) 2,471 5.7 -10.3°
Sets 02:19:13 0° 186° (S) 3,401 6.4 -9.9°
